• In Italy
  • List of Countries
  • For 7 days
  • Water Temperature
  • Satellite Maps
  • Weather Map
  • Weather Widgets
  • user-avatar
    Login

    Hourly Weather Yulara

    Today, 23 October, Tuesday

    Time Temperature Precipitation Wind Pressure Humidity
    00:00 +29°C° 0 mm 8 mps 715 mmHg 17%
    01:00 +28°C° 0 mm 9 mps 715 mmHg 21%
    02:00 +27°C° 0 mm 9 mps 715 mmHg 25%
    03:00 +26°C° 0 mm 8 mps 715 mmHg 27%
    04:00 +24°C° 0 mm 9 mps 715 mmHg 31%
    05:00 +23°C° 0 mm 9 mps 716 mmHg 35%
    06:00 +22°C° 0 mm 9 mps 716 mmHg 40%
    07:00 +23°C° 0 mm 10 mps 717 mmHg 37%
    08:00 +24°C° 0 mm 10 mps 717 mmHg 33%
    09:00 +27°C° 0 mm 11 mps 718 mmHg 29%
    10:00 +29°C° 0 mm 10 mps 717 mmHg 25%
    11:00 +32°C° 0 mm 9 mps 717 mmHg 20%
    12:00 +34°C° 0 mm 8 mps 717 mmHg 16%
    13:00 +35°C° 0 mm 7 mps 716 mmHg 15%
    14:00 +36°C° 0 mm 7 mps 716 mmHg 13%
    15:00 +38°C° 0 mm 7 mps 715 mmHg 12%
    16:00 +38°C° 0 mm 7 mps 715 mmHg 13%
    17:00 +36°C° 0 mm 7 mps 715 mmHg 14%
    18:00 +35°C° 0 mm 7 mps 715 mmHg 14%
    19:00 +33°C° 0 mm 7 mps 716 mmHg 16%
    20:00 +32°C° 0 mm 8 mps 716 mmHg 17%
    21:00 +29°C° 0 mm 8 mps 717 mmHg 19%
    22:00 +28°C° 0 mm 8 mps 717 mmHg 19%
    23:00 +27°C° 0 mm 8 mps 717 mmHg 20%

    Tomorrow, 24 October, Wednesday

    Time Temperature Precipitation Wind Pressure Humidity
    00:00 +26°C° 0 mm 9 mps 717 mmHg 20%
    01:00 +26°C° 0 mm 8 mps 717 mmHg 20%
    02:00 +24°C° 0 mm 8 mps 717 mmHg 21%
    03:00 +24°C° 0 mm 8 mps 716 mmHg 21%
    04:00 +23°C° 0 mm 8 mps 716 mmHg 22%
    05:00 +23°C° 0 mm 8 mps 717 mmHg 22%
    06:00 +22°C° 0 mm 7 mps 717 mmHg 23%
    07:00 +26°C° 0 mm 8 mps 717 mmHg 20%
    08:00 +28°C° 0 mm 9 mps 717 mmHg 17%
    09:00 +31°C° 0 mm 10 mps 717 mmHg 14%
    10:00 +34°C° 0 mm 9 mps 717 mmHg 13%
    11:00 +37°C° 0 mm 8 mps 716 mmHg 12%
    12:00 +40°C° 0 mm 7 mps 716 mmHg 11%
    13:00 +40°C° 0 mm 7 mps 715 mmHg 10%
    14:00 +41°C° 0 mm 6 mps 714 mmHg 10%
    15:00 +42°C° 0 mm 5 mps 714 mmHg 9%
    16:00 +41°C° 0 mm 5 mps 714 mmHg 10%
    17:00 +40°C° 0 mm 4 mps 714 mmHg 11%
    18:00 +40°C° 0 mm 4 mps 714 mmHg 12%
    19:00 +37°C° 0 mm 5 mps 714 mmHg 16%
    20:00 +36°C° 0 mm 7 mps 714 mmHg 20%
    21:00 +35°C° 0 mm 8 mps 715 mmHg 23%
    22:00 +34°C° 0 mm 7 mps 715 mmHg 26%
    23:00 +33°C° 0 mm 7 mps 715 mmHg 28%

    Day after tomorrow, 25 October, Thursday

    Time Temperature Precipitation Wind Pressure Humidity
    00:00 +32°C° 0 mm 6 mps 714 mmHg 31%
    01:00 +30°C° 0.1 mm 5 mps 714 mmHg 31%
    02:00 +30°C° 0.1 mm 4 mps 714 mmHg 32%
    03:00 +30°C° 0.1 mm 3 mps 714 mmHg 32%
    04:00 +29°C° 0.2 mm 3 mps 714 mmHg 34%
    05:00 +29°C° 0.2 mm 3 mps 714 mmHg 35%
    06:00 +29°C° 0.2 mm 3 mps 715 mmHg 37%
    07:00 +32°C° 0.2 mm 5 mps 715 mmHg 34%
    08:00 +33°C° 0.2 mm 6 mps 716 mmHg 31%
    09:00 +35°C° 0.2 mm 8 mps 717 mmHg 29%
    10:00 +36°C° 0 mm 7 mps 716 mmHg 27%
    11:00 +36°C° 0 mm 7 mps 716 mmHg 26%
    12:00 +38°C° 0 mm 7 mps 716 mmHg 25%
    13:00 +38°C° 0 mm 6 mps 715 mmHg 23%
    14:00 +39°C° 0 mm 5 mps 715 mmHg 21%
    15:00 +40°C° 0 mm 4 mps 715 mmHg 19%
    16:00 +39°C° 0.2 mm 5 mps 715 mmHg 21%
    17:00 +38°C° 0.2 mm 6 mps 715 mmHg 23%
    18:00 +36°C° 0.2 mm 7 mps 715 mmHg 24%
    19:00 +35°C° 0.6 mm 6 mps 715 mmHg 30%
    20:00 +33°C° 0.6 mm 4 mps 716 mmHg 35%
    21:00 +30°C° 0.6 mm 3 mps 717 mmHg 40%
    22:00 +30°C° 0.1 mm 4 mps 716 mmHg 40%
    23:00 +32°C° 0.1 mm 4 mps 716 mmHg 39%

    26 October, Friday

    Time Temperature Precipitation Wind Pressure Humidity
    00:00 +32°C° 0.1 mm 5 mps 716 mmHg 39%
    01:00 +30°C° 0.1 mm 4 mps 716 mmHg 39%
    02:00 +30°C° 0.1 mm 4 mps 716 mmHg 40%
    03:00 +29°C° 0.1 mm 3 mps 716 mmHg 40%
    04:00 +28°C° 0.1 mm 3 mps 717 mmHg 43%
    05:00 +28°C° 0.1 mm 3 mps 717 mmHg 46%
    06:00 +27°C° 0.1 mm 3 mps 717 mmHg 49%
    07:00 +29°C° 0 mm 3 mps 718 mmHg 45%
    08:00 +30°C° 0 mm 2 mps 718 mmHg 40%
    09:00 +32°C° 0 mm 2 mps 718 mmHg 35%
    10:00 +34°C° 0 mm 3 mps 718 mmHg 31%
    11:00 +36°C° 0 mm 4 mps 718 mmHg 28%
    12:00 +37°C° 0 mm 4 mps 718 mmHg 24%
    13:00 +37°C° 0 mm 5 mps 717 mmHg 24%
    14:00 +37°C° 0 mm 5 mps 716 mmHg 24%
    15:00 +37°C° 0 mm 5 mps 716 mmHg 25%
    16:00 +36°C° 0.1 mm 5 mps 716 mmHg 27%
    17:00 +35°C° 0.1 mm 4 mps 716 mmHg 29%
    18:00 +34°C° 0.1 mm 3 mps 717 mmHg 31%
    19:00 +32°C° 1.4 mm 5 mps 718 mmHg 43%
    20:00 +28°C° 1.4 mm 8 mps 718 mmHg 55%
    21:00 +26°C° 1.4 mm 10 mps 719 mmHg 67%
    22:00 +24°C° 2 mm 9 mps 719 mmHg 68%
    23:00 +24°C° 2 mm 8 mps 719 mmHg 70%

    27 October, Saturday

    Time Temperature Precipitation Wind Pressure Humidity
    00:00 +23°C° 2 mm 6 mps 719 mmHg 71%
    01:00 +23°C° 0.7 mm 6 mps 718 mmHg 70%
    02:00 +22°C° 0.7 mm 6 mps 718 mmHg 69%
    03:00 +22°C° 0.7 mm 5 mps 717 mmHg 67%
    04:00 +22°C° 0.2 mm 4 mps 717 mmHg 63%
    05:00 +22°C° 0.2 mm 4 mps 717 mmHg 60%
    06:00 +22°C° 0.2 mm 3 mps 717 mmHg 56%
    07:00 +21°C° 1.4 mm 4 mps 718 mmHg 59%
    08:00 +21°C° 1.4 mm 4 mps 718 mmHg 62%
    09:00 +20°C° 1.4 mm 4 mps 719 mmHg 66%
    10:00 +20°C° 1.4 mm 4 mps 719 mmHg 67%
    11:00 +20°C° 1.4 mm 5 mps 718 mmHg 68%
    12:00 +20°C° 1.4 mm 5 mps 718 mmHg 69%
    13:00 +21°C° 0.2 mm 5 mps 718 mmHg 66%
    14:00 +21°C° 0.2 mm 6 mps 717 mmHg 64%
    15:00 +22°C° 0.2 mm 6 mps 717 mmHg 62%
    16:00 +22°C° 0 mm 6 mps 717 mmHg 62%
    17:00 +22°C° 0 mm 5 mps 717 mmHg 61%
    18:00 +22°C° 0 mm 5 mps 717 mmHg 61%
    19:00 +22°C° 0 mm 4 mps 717 mmHg 62%
    20:00 +21°C° 0 mm 4 mps 717 mmHg 64%
    21:00 +21°C° 0 mm 3 mps 718 mmHg 65%
    22:00 +20°C° 0 mm 2 mps 717 mmHg 66%
    23:00 +20°C° 0 mm 2 mps 717 mmHg 67%

    28 October, Sunday

    Time Temperature Precipitation Wind Pressure Humidity
    00:00 +21°C° 0 mm 1 mps 717 mmHg 68%
    01:00 +21°C° 0 mm 1 mps 716 mmHg 69%
    02:00 +21°C° 0 mm 1 mps 716 mmHg 69%
    03:00 +20°C° 0 mm 1 mps 715 mmHg 69%
    04:00 +21°C° 0 mm 1 mps 716 mmHg 69%
    05:00 +21°C° 0 mm 1 mps 716 mmHg 68%
    06:00 +21°C° 0 mm 1 mps 716 mmHg 67%
    07:00 +23°C° 0 mm 1 mps 717 mmHg 59%
    08:00 +25°C° 0 mm 2 mps 717 mmHg 51%
    09:00 +27°C° 0 mm 2 mps 717 mmHg 43%
    10:00 +28°C° 0 mm 3 mps 717 mmHg 40%
    11:00 +30°C° 0 mm 3 mps 717 mmHg 36%
    12:00 +31°C° 0 mm 3 mps 716 mmHg 32%
    13:00 +32°C° 0 mm 4 mps 716 mmHg 32%
    14:00 +33°C° 0 mm 5 mps 716 mmHg 32%
    15:00 +33°C° 0 mm 6 mps 715 mmHg 31%
    16:00 +32°C° 0 mm 6 mps 716 mmHg 34%
    17:00 +30°C° 0 mm 7 mps 716 mmHg 37%
    18:00 +29°C° 0 mm 7 mps 716 mmHg 40%
    19:00 +28°C° 0 mm 7 mps 717 mmHg 42%
    20:00 +27°C° 0 mm 7 mps 717 mmHg 45%
    21:00 +26°C° 0 mm 7 mps 718 mmHg 47%
    22:00 +24°C° 0 mm 7 mps 718 mmHg 49%
    23:00 +24°C° 0 mm 6 mps 718 mmHg 51%

    29 October, Monday

    Time Temperature Precipitation Wind Pressure Humidity
    00:00 +23°C° 0 mm 6 mps 718 mmHg 52%
    01:00 +22°C° 0 mm 5 mps 717 mmHg 54%
    02:00 +22°C° 0 mm 4 mps 717 mmHg 56%
    03:00 +21°C° 0 mm 3 mps 717 mmHg 57%
    04:00 +21°C° 0 mm 3 mps 717 mmHg 59%
    05:00 +21°C° 0 mm 3 mps 718 mmHg 61%
    06:00 +20°C° 0 mm 3 mps 718 mmHg 62%
    07:00 +22°C° 0 mm 4 mps 718 mmHg 57%
    08:00 +23°C° 0 mm 4 mps 719 mmHg 52%
    09:00 +26°C° 0 mm 4 mps 719 mmHg 47%
    10:00 +27°C° 0 mm 3 mps 719 mmHg 42%
    11:00 +29°C° 0 mm 3 mps 718 mmHg 37%
    12:00 +30°C° 0 mm 2 mps 718 mmHg 32%
    13:00 +31°C° 0 mm 2 mps 717 mmHg 30%
    14:00 +32°C° 0 mm 1 mps 717 mmHg 27%
    15:00 +33°C° 0 mm 1 mps 717 mmHg 25%
    16:00 +33°C° 0 mm 1 mps 717 mmHg 24%
    17:00 +34°C° 0 mm 2 mps 717 mmHg 23%
    18:00 +34°C° 0 mm 2 mps 717 mmHg 22%
    19:00 +33°C° 0 mm 3 mps 718 mmHg 23%
    20:00 +31°C° 0 mm 3 mps 718 mmHg 24%
    21:00 +30°C° 0 mm 4 mps 718 mmHg 25%
    22:00 +29°C° 0 mm 4 mps 718 mmHg 25%
    23:00 +28°C° 0 mm 5 mps 718 mmHg 26%
    Show more